Starlink 4310

operational
NORAD ID: 53074 Int'l Des: 2022-077 Owner: SPXS Country: US Constellation: starlink
LEOCIRCULARRETROGRADESSO

About Starlink 4310

Description loading...

Live Position

Loading 3D Globe...

Upcoming Passes

Altitude History

Altitude vs Time

uPlot chart will show altitude changes over time

Two-Line Element Set

1 53074U 22077AH 25310.49581948 .00000431 00000-0 34071-4 0 9993
2 53074 97.6032 129.7563 0002014 87.8352 272.3106 15.05649333182440
Epoch: Nov 6, 2025 • Age: 15 hours

Current Status

Altitude 552.2 km
Velocity 7.59 km/s
Sub-Earth Point 3.18°N, 141.33°W
Launch Date Jul 11, 2022
Age 3.3 years
Type internet

Technical Details

Classification Payload
Mass 297.00 kg
Dry Mass 275.00 kg
Total Mass 297.00 kg
Length 0.20 m
Diameter 2.80 m
Span 9.00 m
Shape Box + pan
Manufacturer SPXS
Bus Type Starlink
Phase Status In Orbit
Owner/State SPXS/US

Large Constellations

Loading constellations...